Iowa Falls, IA

11:40 AM CST on November 23, 2017 (GMT -0600)
Iowa Falls Municipal

Weather History for KIFA - October, 2012

Change the Weather History Date:

Wednesday, October 17, 2012

  Actual Average Record
Temperature  
Mean Temperature 52 °F -  
Max Temperature 60 °F 62 °F 85 °F (1950)
Min Temperature 44 °F 39 °F 18 °F (1948)
Degree Days  
Heating Degree Days 14    
Growing Degree Days 2 (Base 50)    
Moisture  
Dew Point 44 °F    
Average Humidity 69    
Maximum Humidity 88    
Minimum Humidity 44    
Precipitation  
Precipitation 0.01 in - - ()
Sea Level Pressure  
Sea Level Pressure 29.39 in    
Wind  
Wind Speed 15 mph (WSW)    
Max Wind Speed 28 mph    
Max Gust Speed 38 mph    
Visibility 10 miles    
Events Rain    
Averages and records for this station are not official NWS values.
T = Trace of Precipitation, MM = Missing Value Source: NWS Daily Summary

Daily Weather History Graph

Daily Weather History Graph

Search for Another Location

Airport or City:

Trip Planner

Search our weather history database for the weather conditions in past years. The results will help you decide how hot, cold, wet, or windy it might be!

Date:

Astronomy

Oct. 17, 2012 Rise Set
Actual Time 7:28 AM CDT 6:26 PM CDT
Civil Twilight 7:00 AM CDT 6:55 PM CDT
Nautical Twilight 6:27 AM CDT 7:28 PM CDT
Astronomical Twilight 5:55 AM CDT 8:00 PM CDT
Moon 10:07 AM CDT (10/17) 7:59 PM CDT (10/17)
Length of Visible Light 11h 54m
Length of Day
10h 57m
Waxing Crescent, 7% of the Moon is Illuminated
Oct 17
Waxing Crescent
Oct 21
First Quarter
Oct 29
Full
Nov 6
Last Quarter
Nov 13
New

Hourly Weather History & Observations

Time (CDT) Temp. Windchill Dew Point Humidity Pressure Visibility Wind Dir Wind Speed Gust Speed Precip Events Conditions
12:15 AM 54.7 °F - 46.4 °F 74% 29.43 in 10.0 mi SSW 9.2 mph - N/A   Clear
12:35 AM 54.7 °F - 46.4 °F 74% 29.43 in 10.0 mi South 10.4 mph - N/A   Clear
1:35 AM 53.1 °F - 46.6 °F 79% 29.42 in 10.0 mi South 10.4 mph - N/A   Clear
1:55 AM 53.8 °F - 46.6 °F 77% 29.42 in 10.0 mi South 9.2 mph - N/A   Clear
2:15 AM 54.3 °F - 46.9 °F 76% 29.42 in 10.0 mi South 9.2 mph - N/A   Clear
2:35 AM 54.1 °F - 46.9 °F 77% 29.41 in 10.0 mi South 9.2 mph - N/A   Clear
3:35 AM 55.8 °F - 46.6 °F 71% 29.39 in 10.0 mi SSW 10.4 mph - N/A   Clear
3:55 AM 55.9 °F - 46.8 °F 71% 29.37 in 10.0 mi South 9.2 mph - N/A   Clear
4:15 AM 55.8 °F - 46.8 °F 72% 29.36 in 10.0 mi South 10.4 mph - N/A   Clear
5:15 AM 56.5 °F - 47.3 °F 71% 29.35 in 10.0 mi SSE 9.2 mph - N/A   Overcast
5:35 AM 55.9 °F - 47.8 °F 74% 29.35 in 10.0 mi SSE 10.4 mph - N/A   Overcast
5:55 AM 56.5 °F - 48.6 °F 75% 29.34 in 10.0 mi South 10.4 mph - N/A   Overcast
6:35 AM 57.9 °F - 50.0 °F 75% 29.32 in 10.0 mi SSE 15.0 mph 18.4 mph N/A   Scattered Clouds
6:55 AM 57.6 °F - 50.2 °F 76% 29.31 in 10.0 mi SSE 15.0 mph - N/A   Scattered Clouds
7:15 AM 57.4 °F - 50.2 °F 77% 29.32 in 10.0 mi South 12.7 mph - N/A   Mostly Cloudy
7:35 AM 58.1 °F - 50.7 °F 76% 29.33 in 10.0 mi South 13.8 mph - N/A   Scattered Clouds
7:55 AM 59.0 °F - 50.9 °F 74% 29.33 in 10.0 mi South 15.0 mph - N/A   Mostly Cloudy
8:15 AM 59.2 °F - 51.1 °F 74% 29.33 in 10.0 mi South 16.1 mph - N/A Rain Rain
8:35 AM 58.6 °F - 51.8 °F 78% 29.33 in 10.0 mi SSW 15.0 mph - N/A   Overcast
9:55 AM 59.5 °F - 50.2 °F 71% 29.37 in 10.0 mi WSW 17.3 mph - N/A Rain Rain
10:15 AM 57.4 °F - 51.3 °F 80% 29.37 in 10.0 mi WSW 16.1 mph - N/A Rain Light Rain
10:35 AM 56.5 °F - 52.0 °F 85% 29.39 in 10.0 mi WSW 15.0 mph - N/A Rain Light Rain
11:35 AM 55.0 °F - 50.9 °F 86% 29.39 in 10.0 mi West 20.7 mph 25.3 mph N/A   Drizzle
11:55 AM 54.9 °F - 51.3 °F 88% 29.39 in 10.0 mi West 18.4 mph 23.0 mph N/A Rain Light Rain
12:15 PM 54.9 °F - 50.9 °F 86% 29.42 in 10.0 mi WSW 20.7 mph 25.3 mph N/A   Drizzle
12:35 PM 54.7 °F - 50.2 °F 85% 29.41 in 10.0 mi WSW 17.3 mph 24.2 mph N/A Rain Light Rain
12:55 PM 54.7 °F - 50.0 °F 84% 29.40 in 10.0 mi West 19.6 mph 25.3 mph N/A Rain Light Rain
1:15 PM 55.9 °F - 49.1 °F 78% 29.37 in 10.0 mi West 24.2 mph 28.8 mph N/A   Scattered Clouds
1:35 PM 57.6 °F - 48.0 °F 70% 29.38 in 10.0 mi West 21.9 mph 29.9 mph N/A   Clear
1:55 PM 57.7 °F - 47.8 °F 70% 29.39 in 10.0 mi West 19.6 mph 26.5 mph N/A   Scattered Clouds
2:15 PM 59.4 °F - 44.1 °F 57% 29.38 in 10.0 mi West 20.7 mph 24.2 mph N/A   Scattered Clouds
2:35 PM 59.7 °F - 41.2 °F 50% 29.38 in 10.0 mi West 23.0 mph 31.1 mph N/A   Clear
2:55 PM 59.5 °F - 40.6 °F 50% 29.37 in 10.0 mi West 21.9 mph 27.6 mph N/A   Clear
3:15 PM 59.4 °F - 39.2 °F 47% 29.37 in 10.0 mi West 18.4 mph 21.9 mph N/A   Clear
3:35 PM 59.9 °F - 38.1 °F 44% 29.37 in 10.0 mi West 21.9 mph 31.1 mph N/A   Clear
3:55 PM 59.0 °F - 38.7 °F 47% 29.37 in 10.0 mi West 26.5 mph 32.2 mph N/A   Clear
4:15 PM 57.9 °F - 39.2 °F 50% 29.38 in 10.0 mi West 25.3 mph 33.4 mph N/A   Scattered Clouds
4:35 PM 55.8 °F - 38.1 °F 52% 29.38 in 10.0 mi West 20.7 mph 28.8 mph N/A   Scattered Clouds
4:55 PM 55.4 °F - 38.8 °F 54% 29.38 in 10.0 mi West 21.9 mph 29.9 mph N/A   Clear
5:15 PM 54.7 °F - 39.4 °F 56% 29.39 in 10.0 mi West 18.4 mph 24.2 mph N/A   Scattered Clouds
5:35 PM 54.1 °F - 39.0 °F 57% 29.41 in 10.0 mi West 18.4 mph - N/A   Overcast
5:55 PM 53.8 °F - 38.8 °F 57% 29.43 in 10.0 mi West 19.6 mph 29.9 mph N/A   Overcast
6:15 PM 52.7 °F - 38.8 °F 59% 29.43 in 10.0 mi West 24.2 mph 29.9 mph N/A   Overcast
6:35 PM 50.9 °F - 39.6 °F 65% 29.44 in 10.0 mi West 24.2 mph 31.1 mph N/A   Overcast
6:55 PM 50.2 °F - 39.4 °F 66% 29.44 in 10.0 mi West 21.9 mph 31.1 mph N/A   Overcast
7:15 PM 49.8 °F - 38.5 °F 65% 29.45 in 10.0 mi West 24.2 mph 31.1 mph N/A   Overcast
7:35 PM 49.3 °F - 38.7 °F 67% 29.45 in 10.0 mi West 16.1 mph - N/A   Overcast
7:55 PM 49.1 °F - 39.0 °F 68% 29.45 in 10.0 mi West 12.7 mph - N/A   Overcast
8:15 PM 48.9 °F - 37.9 °F 66% 29.45 in 10.0 mi West 20.7 mph 26.5 mph N/A   Overcast
8:35 PM 48.2 °F - 37.9 °F 68% 29.44 in 10.0 mi West 18.4 mph 23.0 mph N/A   Mostly Cloudy
8:55 PM 48.2 °F - 37.9 °F 68% 29.44 in 10.0 mi West 19.6 mph 26.5 mph N/A   Overcast
9:15 PM 47.5 °F - 37.6 °F 69% 29.43 in 10.0 mi West 21.9 mph 26.5 mph N/A   Overcast
9:35 PM 47.8 °F - 37.4 °F 67% 29.43 in 10.0 mi West 19.6 mph 24.2 mph N/A   Overcast
9:55 PM 47.3 °F - 37.6 °F 69% 29.43 in 10.0 mi West 12.7 mph - N/A   Overcast
10:15 PM 47.5 °F - 37.6 °F 69% 29.42 in 10.0 mi West 16.1 mph - N/A   Overcast
10:35 PM 47.3 °F - 35.8 °F 64% 29.42 in 10.0 mi West 27.6 mph 38.0 mph N/A   Overcast
10:55 PM 45.5 °F 38.1 °F 35.6 °F 68% 29.42 in 10.0 mi West 18.4 mph 28.8 mph N/A   Scattered Clouds
11:15 PM 44.6 °F 37.2 °F 35.4 °F 70% 29.41 in 10.0 mi West 17.3 mph 24.2 mph N/A   Scattered Clouds
11:35 PM 45.3 °F 37.1 °F 34.7 °F 66% 29.42 in 10.0 mi WNW 21.9 mph 29.9 mph N/A   Mostly Cloudy
11:55 PM 45.5 °F 37.3 °F 34.0 °F 64% 29.41 in 10.0 mi WNW 21.9 mph 28.8 mph N/A   Mostly Cloudy